User: anonymous   Login
Location: Unspecified
(0.0000°N, 0.0000°E)
Time: 10:50:01
(UTC+02:00)
Language:

NOAA 12 - Orbit

View from above orbital plane
View from above orbital plane
View from above satellite
View from above satellite

Ground track
Ground track

The orbit data is extracted from the following two-line orbital elements,

1 21263U 91032A   16241.53008003 -.00000001  00000-0  17523-4 0  9996
2 21263  98.5919 265.7903 0014693  58.7770 301.4848 14.25819676315024
Epoch (UTC): 28 August 2016 12:43:18
Eccentricity: 0.0014693
inclination: 98.5919°
perigee height: 795 km
apogee height: 816 km
right ascension of ascending node: 265.7903°
argument of perigee: 58.7770°
revolutions per day: 14.25819676
mean anomaly at epoch: 301.4848°
orbit number at epoch: 31502

The dashed part of the orbit path shows where the satellite is in the earth's shadow,  

DLR